Regional Weather Roundup
Issued by NWS

Home | Current Version | Previous Version | Graphics & Text | Print | Product List | Glossary On
Versions: 1 2 3 4 5 6 7 8 9 10 11 12 13 14 15 16 17 18 19 20 21 22 23 24 25 26 27 28 29 30 31 32 33 34 35 36 37 38 39 40 41 42 43 44 45 46 47 48 49 50
000
ASUS43 KLOT 191108
RWRIL

ILLINOIS REGIONAL WEATHER ROUNDUP
NATIONAL WEATHER SERVICE CHICAGO/ROMEOVILLE IL
600 AM CDT SUN APR 19 2015

NOTE: "FAIR" INDICATES FEW OR NO CLOUDS BELOW 12,000 FEET WITH NO
SIGNIFICANT WEATHER AND/OR OBSTRUCTIONS TO VISIBILITY.

* THESE STATIONS ARE NOT UNDER NWS QUALITY CONTROL. THEY ALSO MAY NOT
  REPORT WEATHER SUCH AS PRECIPITATION OR FOG.

ILZ001-002-007-009-015-016-024-191200-
NORTHWEST ILLINOIS

CITY           SKY/WX    TMP DP  RH WIND       PRES   REMARKS
MOLINE         CLOUDY    52  40  63 E6        29.79F
STERLING*      CLOUDY    55  37  50 E10       29.81F
SAVANNA*       CLOUDY    55  38  54 E8        29.81F
$$

ILZ003-004-008-010-011-017-018-191200-
NORTH CENTRAL ILLINOIS

CITY           SKY/WX    TMP DP  RH WIND       PRES   REMARKS
ROCKFORD       MOCLDY    52  30  43 E7        29.86F
FREEPORT*      MOCLDY    49  34  57 E9        29.84F
ROCHELLE*      PTCLDY    52  33  47 E9        29.84S
DE KALB*       PTCLDY    48  30  50 E9        29.85F
PERU*          MOCLDY    56  39  52 E12G18    29.82S
$$

ILZ005-006-012>014-019>023-191200-
NORTHEAST ILLINOIS

CITY           SKY/WX    TMP DP  RH WIND       PRES   REMARKS
CHICAGO-OHARE  MOCLDY    55  31  39 E10       29.87F
CHICAGO-MIDWAY MOCLDY    55  35  47 E9        29.87F
AURORA         PTCLDY    52  32  46 E8        29.85F
LANSING*       MOCLDY    53  32  45 E10       29.87F
JOLIET*        PTCLDY    55  37  49 E10G17    29.85F
WAUKEGAN       PTCLDY    44  32  62 E7        29.90F
DUPAGE AIRPORT PTCLDY    52  30  43 E7        29.86F
KANKAKEE*      PTCLDY    51  39  63 E10       29.85F
WHEELING       PTCLDY    47  34  60 E5        29.90F
MORRIS*        PTCLDY    54  37  51 E12G18    29.81F
ROMEOVILLE*    PTCLDY    54  34  46 E9G16     29.85F
NORTHERLY ISL    N/A     50  36  58 NE6         N/A
$$

LMZ740>746-191200-
SOUTHERN LAKE MICHIGAN

STATION/POSITION SKY/WX   TEMP    WIND        PRES    VSBY  WAVE
                          AIR SEA DIR/SP/G                  HT/PER
                          (F)     (DEG/KT/KT) (MB)    (MI)  (FT/S)
HARRISON CRIB              48     120/  5/  6   N/A
BURNHAM HARBOR             50      70/  5/  6   N/A
CALUMET HARBOR             52      90/  7/ 10   N/A
BURNS HARBOR               55     120/ 18/ 25 1012.5F
MICHIGAN CITY              54      90/ 16/ 20   N/A
MICHIGAN CITY 6N           52 45  130/ 14/ 19   N/A           3/ 5
$$

ILZ025>027-034>036-040-047-049-050-058-095>099-191200-
WEST-CENTRAL ILLINOIS

CITY           SKY/WX    TMP DP  RH WIND       PRES   REMARKS
QUINCY         PTCLDY    56  51  84 E7        29.72F
GALESBURG*     MOCLDY    53  44  70 E5        29.77F
MACOMB*        MOCLDY    54  48  82 NE6       29.77F
JACKSONVILLE*  PTCLDY    57  48  72 E6        29.73F
PITTSFIELD*    PTCLDY    61  50  66 NE3       29.73F
$$

ILZ028>032-037-038-041>044-048-051>054-059>061-191200-
CENTRAL ILLINOIS

CITY           SKY/WX    TMP DP  RH WIND       PRES   REMARKS
PONTIAC        MOCLDY    52  42  67 E16       29.81F
BLOOMINGTON    CLOUDY    57  49  75 E13       29.79F
DECATUR        PTCLDY    56  50  80 E8        29.76F
PEORIA         CLOUDY    57  47  69 E10       29.76F
LACON*         MOCLDY    54  42  63 E9        29.79F
LINCOLN*       PTCLDY    57  49  74 E6        29.74F
SPRINGFIELD    PTCLDY    58  48  69 E7        29.74F
TAYLORVILLE    PTCLDY    57  48  72 E7        29.74S
$$

ILZ033-039-045-046-055>057-062-063-191200-
EAST-CENTRAL ILLINOIS

CITY           SKY/WX    TMP DP  RH WIND       PRES   REMARKS
CHAMPAIGN      CLOUDY    57  49  74 NE13      29.77F
DANVILLE*      CLOUDY    54  45  71 E8        29.78F
RANTOUL*       CLOUDY    57  47  69 E10       29.79F
MATTOON        CLOUDY    62  47  57 E10       29.74F
PARIS*         CLOUDY    58  52  80 NE7       29.78F
$$

ILZ079-100>102-191200-
SOUTHWEST ILLINOIS

CITY           SKY/WX    TMP DP  RH WIND       PRES   REMARKS
ALTON          CLOUDY    62  48  61 E5        29.72S
BELLEVILLE     CLOUDY    63  55  77 SE2       29.70F
CAHOKIA*       CLOUDY    64  53  67 SE7       29.70F
SPARTA*        LGT RAIN  60  58  92 SE3       29.71F
$$

ILZ064>066-069>071-074>076-080>082-084>086-088>090-092>094-191200-
SOUTH-CENTRAL ILLINOIS

CITY           SKY/WX    TMP DP  RH WIND       PRES   REMARKS
CARBONDALE     LGT RAIN  62  59  90 NE3       29.70F
CAIRO*         DRIZZLE   64  64 100 E3        29.68F
EFFINGHAM*     DRIZZLE   61  47  60 E6        29.76F
MARION         RAIN      63  61  94 NE5       29.71F
MT. VERNON     CLOUDY    57  52  82 NE5       29.74F
CENTRALIA*     RAIN      57  55  91 E6        29.72F
SALEM*         RAIN      60  55  81 SE5       29.74F
METROPOLIS*    LGT RAIN  63  63 100 CALM      29.69S
$$

ILZ067-068-072-073-078-083-087-091-191200-
SOUTHEAST ILLINOIS

CITY           SKY/WX    TMP DP  RH WIND       PRES   REMARKS
LAWRENCEVILLE  LGT RAIN  60  51  72 NE3       29.75F
FLORA*         LGT RAIN  58  53  84 N5        29.75F
FAIRFIELD*     RAIN      58  56  92 N3        29.72F
HARRISBURG*    RAIN      61  61 100 NE5       29.72F
ROBINSON*      CLOUDY    61  50  67 CALM      29.77S
CARMI*         LGT RAIN  59  54  82 NE3       29.71F
$$

ABBREVIATIONS USED IN REMARKS
   TC - TEMPERATURE IN CELSIUS
  WCI - WIND CHILL INDEX
   HX - HEAT INDEX
  VSB - VISIBILITY
$$



USA.gov is the U.S. government's official web portal to all federal, state and local government web resources and services.